Location: Klein M�hlingen
(51.9472°N, 11.7453°E)
Time: 12:17:59
(UTC+00:00)

X-37B - Visible Passes

Search period start: 21 September 2021 00:00
Search period end: 01 October 2021 00:00
Orbit: 381 x 393 km, 45.0° (Epoch: 29 August)

Date Brightness Start Highest point End Pass type
(mag) Time Alt. Az. Time Alt. Az. Time Alt. Az.
23 Sep 3.2 04:00:40 10° SSW 04:02:23 14° SSE 04:04:08 10° SE visible
25 Sep 2.7 03:40:29 13° SSW 03:42:00 18° SSE 03:44:14 10° ESE visible
26 Sep 3.3 02:44:46 13° SE 02:44:46 13° SE 02:45:36 10° SE visible
26 Sep 2.3 04:17:15 10° SW 04:19:50 23° S 04:22:25 10° ESE visible
27 Sep 2.3 03:21:20 21° S 03:21:38 21° S 03:24:07 10° ESE visible
28 Sep 3.7 02:25:37 10° ESE 02:25:37 10° ESE 02:25:41 10° ESE visible
28 Sep 2.2 03:57:54 16° SW 03:59:30 23° S 04:02:05 10° SE visible
29 Sep 2.6 03:02:12 20° SSE 03:02:12 20° SSE 03:03:53 10° ESE visible
29 Sep 2.5 04:35:06 10° WSW 04:37:20 18° SSW 04:39:35 10° SSE visible
30 Sep 2.2 03:38:49 21° SSW 03:39:10 21° S 03:41:38 10° SE visible
